Kapolei, HI

9:17 AM HST on December 05, 2016 (GMT -1000)
Kalaeloa (John Rodgers Field)

Weather History for PHJR - November, 2012

Change the Weather History Date:

Wednesday, November 14, 2012

  Actual Average (PHNL) Record (PHNL)
Temperature  
Mean Temperature 76 °F 78 °F  
Max Temperature 82 °F 84 °F 88 °F (1959)
Min Temperature 70 °F 72 °F 62 °F (1974)
Degree Days  
Heating Degree Days 0 0  
Month to date heating degree days 0  
Since 1 July heating degree days 0  
Cooling Degree Days 11 13  
Month to date cooling degree days 188  
Year to date cooling degree days 4134  
Growing Degree Days 26 (Base 50)    
Moisture  
Dew Point 63 °F    
Average Humidity 65    
Maximum Humidity 84    
Minimum Humidity 47    
Precipitation  
Precipitation 0.00 in 0.08 in 4.32 in (1965)
Month to date precipitation 1.18  
Year to date precipitation 12.62  
Snow  
Snow 0.00 in - - ()
Month to date snowfall  
Since 1 July snowfall  
Since 1 September snowfall  
Snow Depth -    
Sea Level Pressure  
Sea Level Pressure 30.14 in    
Wind  
Wind Speed 5 mph (ENE)    
Max Wind Speed 13 mph    
Max Gust Speed 23 mph    
Visibility 10 miles    
Events      
T = Trace of Precipitation, MM = Missing Value Source: NWS Daily Summary

Daily Weather History Graph

Daily Weather History Graph

Search for Another Location

Airport or City:

Trip Planner

Search our weather history database for the weather conditions in past years. The results will help you decide how hot, cold, wet, or windy it might be!

Date:

Astronomy

Nov. 14, 2012 Rise Set
Actual Time 6:42 AM HST 5:50 PM HST
Civil Twilight 6:19 AM HST 6:13 PM HST
Nautical Twilight 5:52 AM HST 6:40 PM HST
Astronomical Twilight 5:26 AM HST 7:07 PM HST
Moon 7:38 AM HST (11/14) 6:58 PM HST (11/14)
Length of Visible Light 11h 54m
Length of Day
11h 07m
New Moon, 2% of the Moon is Illuminated
Nov 14
New Moon
Nov 20
First Quarter
Nov 28
Full
Dec 6
Last Quarter
Dec 12
New

Hourly Weather History & Observations

Time (HST) Temp. Heat Index Dew Point Humidity Pressure Visibility Wind Dir Wind Speed Gust Speed Precip Events Conditions
12:53 AM 70.0 °F - 64.9 °F 84% 30.15 in 10.0 mi Calm Calm - 0.00 in   Clear
1:53 AM 72.0 °F - 64.9 °F 78% 30.15 in 10.0 mi East 4.6 mph - 0.00 in   Clear
2:53 AM 72.0 °F - 64.0 °F 76% 30.14 in 10.0 mi Calm Calm - N/A   Clear
3:53 AM 71.1 °F - 63.0 °F 75% 30.13 in 10.0 mi ENE 4.6 mph - N/A   Clear
4:53 AM 72.0 °F - 63.0 °F 73% 30.14 in 10.0 mi East 4.6 mph - N/A   Clear
5:53 AM 71.1 °F - 62.1 °F 73% 30.15 in 10.0 mi ENE 4.6 mph - N/A   Clear
6:53 AM 72.0 °F - 64.0 °F 76% 30.16 in 10.0 mi ENE 5.8 mph - N/A   Scattered Clouds
7:53 AM 73.9 °F - 64.0 °F 71% 30.17 in 10.0 mi ENE 6.9 mph - N/A   Clear
8:53 AM 78.1 °F - 64.0 °F 62% 30.17 in 10.0 mi ENE 9.2 mph 17.3 mph N/A   Clear
9:53 AM 80.1 °F 81.5 °F 63.0 °F 56% 30.17 in 10.0 mi ENE 6.9 mph 20.7 mph N/A   Clear
10:53 AM 81.0 °F 82.2 °F 63.0 °F 54% 30.16 in 10.0 mi ENE 10.4 mph 21.9 mph N/A   Clear
11:53 AM 82.0 °F 83.8 °F 64.9 °F 56% 30.14 in 10.0 mi ENE 9.2 mph 18.4 mph N/A   Partly Cloudy
12:53 PM 82.9 °F 83.3 °F 61.0 °F 47% 30.12 in 10.0 mi NE 9.2 mph 21.9 mph N/A   Clear
1:53 PM 82.9 °F 83.3 °F 61.0 °F 47% 30.09 in 10.0 mi NE 9.2 mph 18.4 mph N/A   Clear
2:53 PM 82.0 °F 82.4 °F 60.1 °F 47% 30.08 in 10.0 mi ENE 9.2 mph 19.6 mph N/A   Partly Cloudy
3:53 PM 81.0 °F 81.7 °F 61.0 °F 50% 30.09 in 10.0 mi ENE 12.7 mph 23.0 mph N/A   Clear
4:53 PM 79.0 °F - 62.1 °F 56% 30.09 in 10.0 mi NE 9.2 mph 19.6 mph 0.00 in   Partly Cloudy
5:53 PM 75.9 °F - 61.0 °F 60% 30.11 in 10.0 mi Variable 6.9 mph 16.1 mph N/A   Clear
6:53 PM 75.0 °F - 62.1 °F 64% 30.12 in 10.0 mi Variable 5.8 mph - N/A   Clear
7:53 PM 73.9 °F - 62.1 °F 66% 30.14 in 10.0 mi ENE 4.6 mph - N/A   Clear
8:53 PM 73.9 °F - 62.1 °F 66% 30.15 in 10.0 mi Variable 4.6 mph - N/A   Clear
9:53 PM 73.9 °F - 63.0 °F 68% 30.15 in 10.0 mi ENE 3.5 mph - N/A   Clear
10:53 PM 73.0 °F - 64.0 °F 73% 30.15 in 10.0 mi Variable 3.5 mph - N/A   Partly Cloudy
11:53 PM 73.9 °F - 64.0 °F 71% 30.15 in 10.0 mi Variable 3.5 mph - N/A   Mostly Cloudy